Location: San Pelegr�n
(42.1868°N, 0.0079°E)
Time: 07:57:04
(UTC+00:00)

Cosmos 2221 - Pass Details

Date: 24 January 2020
Orbit: 593 x 616 km, 82.5° (Epoch: 17 February)

Event Time Altitude Azimuth Distance (km) Brightness Sun altitude
Rises 18:57:57 0° 355° (N) 2,843 5.9 -21.1°
Reaches altitude 10° 19:00:11 10° 359° (N) 1,939 5.0 -21.5°
Enters shadow 19:02:04 25° 7° (N) 1,220 3.9 -21.9°
